Regional Weather Roundup
Issued by NWS

Home | Current Version | Previous Version | Text Only | Print | Product List | Glossary On
Versions: 1 2 3 4 5 6 7 8 9 10 11 12 13 14 15 16 17 18 19 20 21 22 23 24 25 26 27 28 29 30 31 32 33 34 35 36 37 38 39 40 41 42 43 44 45 46 47 48 49 50
000
ASHW40 PHFO 190143
RWRHI

WEATHER ROUNDUP FOR HAWAII
NATIONAL WEATHER SERVICE HONOLULU HI
300 PM HST FRI AUG 18 2017

THIS IS AN AUTOMATED REPORT THAT HAS NOT BEEN QUALITY CONTROLLED.

NOTE..."FAIR" INDICATES FEW OR NO CLOUDS BELOW 12,000 FEET WITH NO
SIGNIFICANT WEATHER AND/OR OBSTRUCTIONS TO VISIBILITY.

* - THESE SITES REPORT LIMITED FIELDS
# - BUOY DATA PROVIDED BY PACIFIC ISLANDS OCEAN OBSERVING SYSTEM.

HIZ001>004-190200-
KAUAI-NIIHAU-

CITY           SKY/WX    TMP DP  RH WIND       PRES   REMARKS
LIHUE APT      MOSUNNY   86  69  56 NE16      29.97F HX  90
PORT ALLEN*      N/A     91 N/A N/A E22G30      N/A
POIPU*           N/A     86 N/A N/A E10G21      N/A
PRINCEVILLE*     N/A     82 N/A N/A E8          N/A
KOKOLE POINT*  NOT AVBL
MOLOAA DAIRY*    N/A     84  68  58 E5G12       N/A
WAIMEA HTS*      N/A     91  70  49 SW9G17      N/A  HX  97
PUU OPAE*        N/A     79  63  57 SW7         N/A
PUU LUA*       NOT AVBL
MAKAHA RIDGE*    N/A     82  64  54 SW2G9       N/A
$$

HIZ005>011-190200-
OAHU-

CITY           SKY/WX    TMP DP  RH WIND       PRES   REMARKS
HONOLULU       MOSUNNY   88  65  46 NE12G22   29.92F HX  90
KALAELOA       MOSUNNY   90  64  42 NE14G21   29.93F HX  91
KANEOHE MCB    MOSUNNY   86  68  54 NE10      29.92
WHEELER FIELD  PTSUNNY   82  66  59 NE10      29.94F
BELLOWS*         N/A    N/A N/A N/A NE16        N/A
KAHUKU*          N/A    N/A N/A N/A NE7G14      N/A
WHEELER*         N/A    N/A N/A N/A NE6G13      N/A
WAIANAE HARBOR   N/A    N/A N/A N/A SW10        N/A
DILLINGHAM*      N/A     88  72  58 S5G15       N/A  HX  94
KAHUKU TRN*      N/A     88  72  58 W12G20      N/A  HX  94
KAWAILOA*        N/A     79  66  65 E12G21      N/A
KII*             N/A     82  70  65 E14         N/A
MAKUA RANGE*     N/A     90  70  51 SW13G29     N/A  HX  95
OAHU FOREST NW   N/A     75  64  69 E14G25      N/A
SCHOFIELD BRK*   N/A     84  64  51 MISG        N/A
SCHOFIELD S*   NOT AVBL
WAIANAE VLY*     N/A     88  63  42 S3G17       N/A
KUAOKALA*        N/A     77  68  73 VRB20G30    N/A
HONOULIUULI*   NOT AVBL
MOKUOLOE IS*   NOT AVBL
PALEHUA*         N/A     79  63  57 NE6G16      N/A
WAIAWA PHB*    NOT AVBL
$$

HIZ012>013-190200-
MOLOKAI-

CITY           SKY/WX    TMP DP  RH WIND       PRES   REMARKS
MOLOKAI AIRPT  PTSUNNY   82  71  69 NE12G21   29.95S
KALAUPAPA      NOT AVBL
MAKAPULAPAI*     N/A     84  70  61 E15         N/A
MOLOKAI 1*       N/A     75  63  64 N3G13       N/A
PUU ALII*        N/A     65  63  93 N3G12       N/A
$$

HIZ016-190200-
KAHOOLAWE-

CITY           SKY/WX    TMP DP  RH WIND       PRES   REMARKS
KAHOOLAWE*     NOT AVBL
HAKIOAWA*        N/A     81  69  65 MISG      30.35F
HONOKANAIA*      N/A     86  69  55 E18G31    29.86F HX  90
KANELOA*         N/A     82  72  69 E18G30    29.99F
KEALIALALO*    NOT AVBL
LUA MAKIKA*    NOT AVBL
$$

HIZ014>015-190200-
LANAI-

CITY           SKY/WX    TMP DP  RH WIND       PRES   REMARKS
LANAI CITY     PTSUNNY   80  69  69 NE20      29.97F
LANAI 1*         N/A     79  70  73 NE16G25     N/A
$$

HIZ017>028-190200-
MAUI-

CITY           SKY/WX    TMP DP  RH WIND       PRES   REMARKS
KAHULUI        MOSUNNY   87  68  52 NE22G33   29.90F HX  90
KAPALUA-W MAUI LGT RAIN  84  66  54 NE14G24   29.94
HANA AIRPORT   CLOUDY    84  72  65 NE5       29.96F
HANA*          NOT AVBL
HALEAKALA SUMM   N/A     57  28  33 NE12        N/A
MAALAEA BAY*     N/A     86 N/A N/A N20G31      N/A
HALEAKALA*     NOT AVBL
KAUPO GAP*     NOT AVBL
KULA 1*          N/A     61  59  93 NW3         N/A
$$

HIZ023>026-190200-
BIG ISLAND OF HAWAII COAST AND LOWER SLOPES-

CITY           SKY/WX    TMP DP  RH WIND       PRES   REMARKS
KAILUA KONA    PTSUNNY   84  69  60 S14       29.89S
HILO           SUNNY     84  71  65 NE10      29.92F
HONOKAA*         N/A     77 N/A N/A VRB1        N/A
KAWAIHAE MWT*    N/A     84 N/A N/A W13         N/A
KAWAIHAE*        N/A     81 N/A N/A W12       29.89F
SOUTH POINT*     N/A     79 N/A N/A NE15G23     N/A
UPOLU AIRPORT* NOT AVBL
KAMUELA*         N/A     79  61  53 NE14      30.02S
HAKALAU*         N/A     66  55  68 E7          N/A
KALOKO-HONOKO*   N/A     84  70  61 SW8       29.89S
PALI 2*          N/A     81  57  44 SW21G29     N/A
KEALAKOMO*       N/A     86  70  58 E22G31      N/A  HX  90
KAUPULEHU*       N/A     82  64  54 SW13G21     N/A
KAPAPALA*        N/A     79  70  73 SE7G18      N/A
LOWER KAHUKU*    N/A     68  68 100 E2G12       N/A
PUHE CS*         N/A     88  70  55 W5G12       N/A  HX  92
PUHO CS*         N/A     84  68  57 W2          N/A
PTA KEAMUKU*     N/A    N/A N/A N/A N22G32      N/A
WAIKOLOA*        N/A     81  70  69 W13G18      N/A
$$

HIZ027>028-190200-
BIG ISLAND OF HAWAII INTERIOR AND SUMMMITS-

CITY           SKY/WX    TMP DP  RH WIND       PRES   REMARKS
BRADSHAW FIELD MOSUNNY   72  57  60 W9        30.24F
MK VISITOR CEN   N/A     59  48  67 W10         N/A
MAUNA KEA*       N/A     45  27  49 N6          N/A
MAUNA LOA*       N/A     52  43  71 MISG        N/A
MAUNA LOA 1*   NOT AVBL
PTA KIPUKA*      N/A     70  59  68 SE9G18      N/A
PTA RANGE 17*    N/A    N/A N/A N/A E12G22      N/A
PTA WEST*        N/A     72  59  64 NW18G29     N/A
NENE CABIN*      N/A     57  57 100 E6G13       N/A
AHUMOA*          N/A     63  59  86 VRB8G16     N/A
PTA PORTABLE*  NOT AVBL
PUU MALI*        N/A     63  57  82 NE20G28     N/A
$$

HIC003-190200-
NORTHWEST ISLANDS-

CITY           SKY/WX    TMP DP  RH WIND       PRES   REMARKS
MIDWAY ISLAND  MOSUNNY   86  75  70 E9        30.11F HX  95
MIDWAY NOS*      N/A     82 N/A N/A MISG      30.10F
FRENCH FRIGATE NOT AVBL
$$

PHZ110>124-180-190200-
BUOY REPORTS

STATION/POSITION TIME  TEMP    WIND        PRES    WAVE   SWELL
                       AIR SEA DIR/SP/G            HT/PER HT/DIR
                 (UTC) (F)     (DEG/KT/KT) (MB)    (FT/S) (FT/D)
BUOY 51001       0110   80 82   70/ 12/ 14 1015.3
BUOY 51101       0050   80 82   60/ 12/ 14 1015.9F   5/ 8   5/ 90
BUOY 51100       NOT AVBL
BUOY 51002       0110   80 80   70/ 16/ 17 1011.5
BUOY 51003       0050   81 82   60/ 10/ 12 1012.5F   5/14   5/140
BUOY 51004       0050      80   70/ 14/ 16 1011.5F   5/ 8   3/ 70
WAIMEA BAY#      0102      79                N/A     3/ 8
MOKAPU POINT#    0104      81                N/A     4/ 8   2/140
LANAI#           NOT AVBL
BARBERS PT 2#    NOT AVBL
PAUWELA#         0109      80                N/A     4/ 8   2/ 90
HILO#            0127      81                N/A     5/ 8   2/110
KANEOHE BAY#     NOT AVBL
KANEOHE BAY 2#   NOT AVBL
HANALEI#         0122      81                N/A     4/ 8
KAHULUI HARBOR   0118   80 81   30/ 17/ 21 1012.9
HONOLULU HARBOR  0118   83 81   60/ 10/ 15 1013.9
PEARL HARBOR#    0030      81                N/A     3/14   2/160
KILO NALU        NOT AVBL
HILO HARBOR      0118   86 81   50/  9/ 11 1012.8
MOKUOLOE         0036   80 82   40/ 13/ 16 1014.2F
NAWILIWILI       0118   81      30/ 10/ 16 1014.1
WHOTS BUOY       NOT AVBL
BUOY 51028       NOT AVBL
$$

......................KEY........................................
  SKY/WX - SKY CONDITIONS/PRESENT WEATHER
  TMP    - TEMPERATURE IN FAHRENHEIT
  DWPT   - DEWPOINT IN FAHRENHEIT
  RH     - RELATIVE HUMIDITY IN PERCENT
  WIND   - DIRECTION AND SPEED /MPH FOR ISLANDS...KTS FOR BUOYS/
  PRES   - MEAN SEA LEVEL PRESSURE IN INCHES OF HG
  VSB    - VISIBILITY IN MILES
  HX     - HEAT INDEX
  WCI    - WIND CHILL INDEX
  VRB    - VARIABLE WIND DIRECTION
  N/A    - NOT AVAILABLE




USA.gov is the U.S. government's official web portal to all federal, state and local government web resources and services.